EW0132 Weather Reports


Display with metric or nautical units.
time (UTC)temp
F
wind
direction
speed
MPH
gust
MPH
rain 1hr
in
rain 24hr
in
rain mn
in
humidity
%
barometer
mb
20260504044546 38 0 0.0 0.0 0.00 0.00 0.00 73 1015.4
20260504043056 38 0 0.0 3.0 0.00 0.00 0.00 75 1015.3
20260504041549 39 261 2.0 4.0 0.00 0.00 0.00 74 1015.4
20260504040049 39 265 1.0 3.0 0.00 0.00 0.00 74 1015.4
20260504034556 39 0 0.0 3.0 0.00 0.00 0.00 72 1015.5
20260504033050 39 0 0.0 3.0 0.00 0.00 0.00 72 1015.4
20260504031549 40 256 0.0 3.0 0.00 0.00 0.00 71 1015.5
20260504030052 41 0 0.0 0.0 0.00 0.00 0.00 69 1015.5
20260504024548 41 0 0.0 0.0 0.00 0.00 0.00 66 1015.5
20260504023048 42 0 0.0 0.0 0.00 0.00 0.00 66 1015.7
20260504021553 42 0 0.0 0.0 0.00 0.00 0.00 65 1015.6
20260504020105 43 284 1.0 4.0 0.00 0.00 0.00 63 1015.5
20260504014553 44 284 1.0 3.0 0.00 0.00 0.00 62 1015.4
20260504013108 44 276 2.0 6.0 0.00 0.00 0.00 60 1015.4
20260504011548 45 236 2.0 4.0 0.00 0.00 0.00 59 1015.3
20260504010048 46 261 1.0 4.0 0.00 0.00 0.00 56 1015.3
20260504004546 48 254 2.0 4.0 0.00 0.00 0.00 52 1015.3
20260504003048 48 247 2.0 5.0 0.00 0.00 0.00 51 1015.2
20260504001551 49 250 3.0 7.0 0.00 0.00 0.00 50 1015.2
20260504000041 49 248 3.0 10.0 0.00 0.00 0.00 49 1015.2
20260503234543 50 254 3.0 10.0 0.00 0.00 0.00 49 1015.2
20260503233045 51 267 5.0 16.0 0.00 0.00 0.00 47 1015.2
20260503231543 51 237 8.0 18.0 0.00 0.00 0.00 46 1015.1
20260503230049 52 290 6.0 16.0 0.00 0.00 0.00 46 1015.3
20260503224558 51 308 8.0 17.0 0.00 0.00 0.00 45 1015.2
20260503223051 52 251 11.0 21.0 0.00 0.00 0.00 44 1015.3
20260503221558 52 255 9.0 18.0 0.00 0.00 0.00 45 1015.3
20260503220050 53 259 8.0 15.0 0.00 0.00 0.00 44 1015.2
20260503214553 52 275 8.0 19.0 0.00 0.00 0.00 46 1015.2
20260503213050 54 315 12.0 19.0 0.00 0.00 0.00 43 1015.2
20260503211550 52 293 9.0 19.0 0.00 0.00 0.00 45 1015.3
20260503210054 51 270 11.0 21.0 0.00 0.00 0.00 48 1015.3
20260503204614 52 254 10.0 19.0 0.00 0.00 0.00 43 1015.4
20260503203057 51 225 9.0 21.0 0.00 0.00 0.00 48 1015.5
20260503201553 51 284 8.0 19.0 0.00 0.00 0.00 46 1015.8
20260503200053 53 307 12.0 18.0 0.00 0.00 0.00 47 1015.8
20260503194548 52 314 11.0 23.0 0.00 0.00 0.00 48 1016.0
20260503193049 52 279 8.0 21.0 0.00 0.00 0.00 46 1016.1
20260503191607 51 282 7.0 19.0 0.00 0.00 0.00 47 1016.1
20260503190049 52 237 12.0 23.0 0.00 0.00 0.00 49 1016.3
20260503184544 51 321 12.0 32.0 0.00 0.00 0.00 47 1016.4
20260503183049 50 263 11.0 20.0 0.00 0.00 0.00 46 1016.5
20260503181551 50 263 12.0 24.0 0.00 0.00 0.00 47 1016.6
20260503180057 50 317 11.0 21.0 0.00 0.00 0.00 48 1016.7
20260503174553 49 287 10.0 20.0 0.00 0.00 0.00 51 1016.9
20260503173045 49 251 11.0 23.0 0.00 0.00 0.00 52 1016.9
20260503171545 47 275 11.0 23.0 0.00 0.00 0.00 48 1017.2
20260503170103 48 221 8.0 20.0 0.00 0.00 0.00 51 1017.4
20260503081543 32 240 0.0 5.0 0.00 0.00 0.00 83 1015.8
20260503071608 33 289 3.0 10.0 0.00 0.00 0.00 80 1015.5
20260503054606 34 0 0.0 4.0 0.00 0.00 0.00 78 1015.5
20260503053047 34 282 1.0 4.0 0.00 0.00 0.00 79 1015.6
20260503051549 35 315 1.0 9.0 0.00 0.00 0.00 79 1015.5
20260503050049 35 300 3.0 9.0 0.00 0.00 0.00 80 1015.8